IBE043A LEMD-LEPA

Flight info

Callsign IBE043A
Flight time 0h 52m
Altitude 32000
Route NANDO M871 GODOX
Aircraft A321/M-SDE3FGHIRWY/LB1

Departure

Time 2026-05-06 15:45
Airport Adolfo Suárez Madrid–Barajas Airport (LEMD)

Arrival

Time 2026-05-06 16:38
Airport Palma de Mallorca Airport (LEPA)
Time Latitude Longitude Altitude Speed Heading
2026-05-06 15:13 40.48931 -3.58983 2035 ft 0 kts 270°
2026-05-06 15:32 40.48931 -3.58972 2035 ft 2 kts 269°
2026-05-06 15:32 40.48931 -3.58952 2035 ft 2 kts 270°
2026-05-06 15:32 40.48931 -3.58940 2035 ft 1 kts 270°
2026-05-06 15:33 40.48935 -3.58920 2035 ft 2 kts 234°
2026-05-06 15:33 40.48946 -3.58907 2034 ft 2 kts 205°
2026-05-06 15:33 40.48956 -3.58903 2034 ft 0 kts 183°
2026-05-06 15:33 40.48963 -3.58903 2034 ft 0 kts 180°
2026-05-06 15:34 40.48964 -3.58903 2034 ft 0 kts 180°
2026-05-06 15:36 40.48954 -3.58902 2034 ft 2 kts 178°
2026-05-06 15:36 40.48926 -3.58902 2035 ft 5 kts 179°
2026-05-06 15:37 40.48874 -3.58901 2035 ft 9 kts 179°
2026-05-06 15:37 40.48797 -3.58898 2034 ft 9 kts 171°
2026-05-06 15:37 40.48762 -3.58804 2032 ft 15 kts 93°
2026-05-06 15:37 40.48761 -3.58650 2029 ft 14 kts 88°
2026-05-06 15:38 40.48762 -3.58494 2027 ft 19 kts 91°
2026-05-06 15:38 40.48763 -3.58289 2021 ft 21 kts 89°
2026-05-06 15:38 40.48763 -3.58125 2015 ft 13 kts 89°
2026-05-06 15:38 40.48796 -3.58064 2014 ft 11 kts 13°
2026-05-06 15:39 40.48858 -3.58000 2011 ft 14 kts 82°
2026-05-06 15:39 40.48858 -3.57845 2007 ft 19 kts 90°
2026-05-06 15:39 40.48860 -3.57654 2002 ft 23 kts 89°
2026-05-06 15:39 40.48860 -3.57444 1996 ft 21 kts 90°
2026-05-06 15:40 40.48861 -3.57257 1991 ft 21 kts 90°
2026-05-06 15:40 40.48861 -3.57059 1983 ft 20 kts 89°
2026-05-06 15:40 40.48862 -3.56855 1978 ft 24 kts 90°
2026-05-06 15:40 40.48863 -3.56619 1970 ft 22 kts 89°
2026-05-06 15:41 40.48863 -3.56415 1963 ft 21 kts 90°
2026-05-06 15:41 40.48873 -3.56269 1958 ft 12 kts 58°
2026-05-06 15:41 40.48953 -3.56255 1955 ft 13 kts
2026-05-06 15:41 40.49067 -3.56248 1951 ft 19 kts 359°
2026-05-06 15:42 40.49224 -3.56248 1940 ft 25 kts 360°
2026-05-06 15:42 40.49406 -3.56249 1934 ft 23 kts 359°
2026-05-06 15:42 40.49560 -3.56250 1933 ft 21 kts 359°
2026-05-06 15:42 40.49717 -3.56251 1930 ft 24 kts 359°
2026-05-06 15:43 40.49861 -3.56252 1928 ft 13 kts 359°
2026-05-06 15:43 40.49937 -3.56230 1927 ft 10 kts 54°
2026-05-06 15:43 40.49942 -3.56141 1925 ft 9 kts 90°
2026-05-06 15:43 40.49951 -3.56032 1923 ft 14 kts 70°
2026-05-06 15:44 40.50032 -3.55932 1921 ft 17 kts 15°
2026-05-06 15:44 40.50111 -3.55922 1923 ft 10 kts
2026-05-06 15:44 40.50377 -3.55921 1942 ft 68 kts 359°
2026-05-06 15:44 40.51071 -3.55925 1925 ft 128 kts 359°
2026-05-06 15:45 40.52126 -3.55932 1955 ft 171 kts 359°
2026-05-06 15:45 40.53335 -3.55940 2391 ft 174 kts 359°
2026-05-06 15:45 40.54552 -3.55941 2788 ft 183 kts
2026-05-06 15:45 40.55810 -3.55503 3210 ft 194 kts 26°
2026-05-06 15:46 40.57044 -3.54744 3792 ft 197 kts 21°
2026-05-06 15:46 40.58331 -3.54054 4277 ft 206 kts 25°
2026-05-06 15:46 40.59623 -3.53173 4767 ft 215 kts 28°
2026-05-06 15:46 40.60840 -3.52121 5524 ft 206 kts 44°
2026-05-06 15:47 40.61847 -3.50872 6332 ft 195 kts 44°
2026-05-06 15:47 40.62829 -3.49669 6879 ft 198 kts 40°
2026-05-06 15:47 40.63914 -3.48482 7185 ft 213 kts 43°
2026-05-06 15:47 40.64719 -3.46779 7466 ft 228 kts 78°
2026-05-06 15:48 40.64499 -3.44675 7674 ft 247 kts 116°
2026-05-06 15:48 40.63508 -3.42774 8063 ft 262 kts 128°
2026-05-06 15:48 40.62332 -3.40849 8456 ft 277 kts 128°
2026-05-06 15:48 40.61144 -3.38817 9080 ft 283 kts 126°
2026-05-06 15:49 40.59981 -3.36718 9835 ft 284 kts 125°
2026-05-06 15:49 40.58850 -3.34600 10490 ft 289 kts 125°
2026-05-06 15:49 40.57685 -3.32354 10829 ft 305 kts 124°
2026-05-06 15:49 40.56483 -3.29999 11125 ft 321 kts 124°
2026-05-06 15:50 40.55225 -3.27519 11610 ft 329 kts 124°
2026-05-06 15:50 40.53947 -3.24990 12249 ft 333 kts 124°
2026-05-06 15:50 40.52667 -3.22452 12857 ft 337 kts 124°
2026-05-06 15:50 40.51379 -3.19901 13453 ft 340 kts 124°
2026-05-06 15:51 40.50066 -3.17301 14046 ft 344 kts 124°
2026-05-06 15:51 40.48745 -3.14684 14611 ft 348 kts 124°
2026-05-06 15:51 40.47389 -3.12001 15162 ft 353 kts 124°
2026-05-06 15:51 40.46030 -3.09318 15699 ft 357 kts 124°
2026-05-06 15:52 40.44658 -3.06606 16230 ft 361 kts 124°
2026-05-06 15:52 40.43267 -3.03862 16741 ft 365 kts 124°
2026-05-06 15:52 40.41852 -3.01071 17251 ft 369 kts 125°
2026-05-06 15:52 40.40424 -2.98257 17751 ft 373 kts 125°
2026-05-06 15:53 40.38988 -2.95432 18225 ft 377 kts 125°
2026-05-06 15:53 40.37531 -2.92565 18712 ft 381 kts 125°
2026-05-06 15:53 40.36051 -2.89655 19187 ft 385 kts 125°
2026-05-06 15:53 40.34570 -2.86746 19652 ft 388 kts 125°
2026-05-06 15:54 40.33051 -2.83765 20128 ft 392 kts 126°
2026-05-06 15:54 40.31531 -2.80789 20602 ft 395 kts 126°
2026-05-06 15:54 40.30008 -2.77809 21056 ft 398 kts 126°
2026-05-06 15:54 40.28474 -2.74806 21501 ft 402 kts 126°
2026-05-06 15:55 40.26915 -2.71760 21942 ft 405 kts 126°
2026-05-06 15:55 40.25339 -2.68683 22371 ft 409 kts 126°
2026-05-06 15:55 40.23764 -2.65610 22799 ft 412 kts 127°
2026-05-06 15:55 40.22145 -2.62459 23217 ft 415 kts 127°
2026-05-06 15:56 40.20547 -2.59350 23635 ft 418 kts 127°
2026-05-06 15:56 40.18911 -2.56170 24066 ft 421 kts 127°
2026-05-06 15:56 40.17275 -2.52992 24482 ft 424 kts 127°
2026-05-06 15:56 40.15640 -2.49821 24882 ft 427 kts 127°
2026-05-06 15:57 40.13966 -2.46575 25277 ft 430 kts 127°
2026-05-06 15:57 40.12296 -2.43341 25635 ft 433 kts 127°
2026-05-06 15:57 40.10619 -2.40095 25999 ft 436 kts 127°
2026-05-06 15:57 40.08929 -2.36827 26366 ft 438 kts 128°
2026-05-06 15:58 40.07206 -2.33499 26716 ft 441 kts 128°
2026-05-06 15:58 40.05500 -2.30190 27054 ft 443 kts 128°
2026-05-06 15:58 40.03793 -2.26888 27389 ft 445 kts 129°
2026-05-06 15:58 40.02035 -2.23496 27707 ft 448 kts 129°
2026-05-06 15:59 40.00305 -2.20171 28010 ft 450 kts 129°
2026-05-06 15:59 39.98548 -2.16779 28333 ft 452 kts 128°
2026-05-06 15:59 39.96921 -2.13201 28629 ft 459 kts 123°
2026-05-06 15:59 39.95571 -2.09491 29018 ft 461 kts 117°
2026-05-06 16:00 39.94479 -2.05580 29457 ft 463 kts 111°
2026-05-06 16:00 39.93665 -2.01505 29845 ft 466 kts 105°
2026-05-06 16:00 39.93147 -1.97325 30220 ft 468 kts 100°
2026-05-06 16:00 39.92741 -1.93145 30577 ft 467 kts 102°
2026-05-06 16:01 39.92160 -1.89044 30884 ft 466 kts 107°
2026-05-06 16:01 39.91331 -1.84974 31142 ft 466 kts 110°
2026-05-06 16:01 39.90411 -1.80938 31407 ft 467 kts 111°
2026-05-06 16:01 39.89450 -1.76878 31676 ft 468 kts 112°
2026-05-06 16:02 39.88473 -1.72830 31909 ft 470 kts 112°
2026-05-06 16:02 39.87504 -1.68803 31933 ft 471 kts 112°
2026-05-06 16:02 39.85565 -1.60656 31942 ft 471 kts 112°
2026-05-06 16:03 39.83638 -1.52525 31945 ft 471 kts 112°
2026-05-06 16:03 39.81706 -1.44400 31948 ft 472 kts 112°
2026-05-06 16:04 39.79575 -1.36385 31944 ft 465 kts 121°
2026-05-06 16:04 39.76055 -1.29618 31950 ft 449 kts 141°
2026-05-06 16:05 39.71283 -1.24664 31953 ft 433 kts 158°
2026-05-06 16:05 39.65873 -1.21332 31951 ft 429 kts 164°
2026-05-06 16:06 39.60472 -1.17960 31944 ft 438 kts 157°
2026-05-06 16:06 39.55546 -1.13200 31946 ft 449 kts 144°
2026-05-06 16:07 39.51440 -1.07007 31952 ft 460 kts 131°
2026-05-06 16:07 39.48188 -0.99823 31955 ft 464 kts 125°
2026-05-06 16:08 39.45071 -0.92552 31949 ft 463 kts 126°
2026-05-06 16:08 39.41909 -0.85319 31936 ft 464 kts 126°
2026-05-06 16:09 39.38730 -0.78099 31932 ft 463 kts 126°
2026-05-06 16:09 39.35534 -0.70881 31921 ft 462 kts 126°
2026-05-06 16:10 39.32349 -0.63669 31914 ft 465 kts 124°
2026-05-06 16:10 39.29879 -0.55908 31912 ft 474 kts 111°
2026-05-06 16:11 39.28746 -0.47515 31906 ft 482 kts 97°
2026-05-06 16:11 39.28939 -0.38836 31905 ft 485 kts 88°
2026-05-06 16:12 39.29475 -0.30216 31910 ft 485 kts 88°
2026-05-06 16:12 39.29969 -0.21524 31912 ft 485 kts 89°
2026-05-06 16:13 39.30423 -0.12877 31914 ft 485 kts 89°
2026-05-06 16:13 39.30863 -0.04263 31909 ft 484 kts 89°
2026-05-06 16:14 39.31295 0.04415 31916 ft 484 kts 89°
2026-05-06 16:14 39.31724 0.13099 31917 ft 485 kts 89°
2026-05-06 16:15 39.32145 0.21734 31917 ft 485 kts 89°
2026-05-06 16:15 39.32561 0.30415 31915 ft 485 kts 89°
2026-05-06 16:16 39.32969 0.39098 31911 ft 485 kts 89°
2026-05-06 16:16 39.33169 0.43430 31665 ft 487 kts 89°
2026-05-06 16:16 39.33367 0.47749 30855 ft 489 kts 89°
2026-05-06 16:17 39.33565 0.52125 30056 ft 491 kts 89°
2026-05-06 16:17 39.33762 0.56553 29255 ft 493 kts 89°
2026-05-06 16:17 39.33958 0.60944 28469 ft 493 kts 89°
2026-05-06 16:17 39.34152 0.65340 27652 ft 490 kts 89°
2026-05-06 16:18 39.34344 0.69651 26856 ft 476 kts 89°
2026-05-06 16:18 39.34526 0.73799 26083 ft 465 kts 89°
2026-05-06 16:18 39.34707 0.77955 25296 ft 457 kts 89°
2026-05-06 16:18 39.34879 0.81978 24523 ft 451 kts 89°
2026-05-06 16:19 39.35048 0.85980 23745 ft 445 kts 89°
2026-05-06 16:19 39.35215 0.89943 22977 ft 439 kts 89°
2026-05-06 16:19 39.35376 0.93816 22239 ft 438 kts 89°
2026-05-06 16:19 39.35538 0.97761 21532 ft 438 kts 88°
2026-05-06 16:20 39.35698 1.01632 20909 ft 436 kts 88°
2026-05-06 16:20 39.35857 1.05545 20277 ft 434 kts 88°
2026-05-06 16:20 39.36014 1.09416 19648 ft 432 kts 88°
2026-05-06 16:20 39.36167 1.13206 19067 ft 419 kts 88°
2026-05-06 16:21 39.36316 1.16906 18510 ft 402 kts 88°
2026-05-06 16:21 39.36457 1.20463 17979 ft 396 kts 88°
2026-05-06 16:21 39.36595 1.23952 17460 ft 393 kts 88°
2026-05-06 16:21 39.36733 1.27470 16960 ft 391 kts 88°
2026-05-06 16:22 39.36869 1.30957 16458 ft 389 kts 88°
2026-05-06 16:22 39.37001 1.34421 15957 ft 386 kts 88°
2026-05-06 16:22 39.37132 1.37858 15465 ft 384 kts 88°
2026-05-06 16:22 39.37334 1.41308 14963 ft 383 kts 84°
2026-05-06 16:23 39.37709 1.44681 14465 ft 381 kts 81°
2026-05-06 16:23 39.38148 1.48025 14037 ft 376 kts 80°
2026-05-06 16:23 39.38592 1.51331 13663 ft 371 kts 80°
2026-05-06 16:23 39.39024 1.54550 13295 ft 365 kts 80°
2026-05-06 16:24 39.39449 1.57746 12926 ft 359 kts 80°
2026-05-06 16:24 39.39867 1.60919 12551 ft 354 kts 80°
2026-05-06 16:24 39.40274 1.64017 12185 ft 352 kts 80°
2026-05-06 16:24 39.40683 1.67146 11812 ft 349 kts 80°
2026-05-06 16:25 39.41077 1.70186 11446 ft 346 kts 80°
2026-05-06 16:25 39.41473 1.73242 11073 ft 342 kts 80°
2026-05-06 16:25 39.41866 1.76279 10700 ft 340 kts 80°
2026-05-06 16:25 39.42254 1.79277 10329 ft 337 kts 80°
2026-05-06 16:26 39.42636 1.82240 9957 ft 333 kts 80°
2026-05-06 16:26 39.43015 1.85178 9609 ft 329 kts 80°
2026-05-06 16:26 39.43382 1.88029 9359 ft 320 kts 80°
2026-05-06 16:26 39.43744 1.90841 9105 ft 311 kts 80°
2026-05-06 16:27 39.44091 1.93545 8854 ft 303 kts 80°
2026-05-06 16:27 39.44432 1.96214 8600 ft 295 kts 79°
2026-05-06 16:27 39.44761 1.98789 8392 ft 286 kts 80°
2026-05-06 16:27 39.45082 2.01268 8285 ft 274 kts 78°
2026-05-06 16:28 39.45509 2.03603 8177 ft 262 kts 72°
2026-05-06 16:28 39.46065 2.05823 8078 ft 261 kts 70°
2026-05-06 16:28 39.46657 2.08062 7916 ft 261 kts 71°
2026-05-06 16:28 39.46911 2.10334 7654 ft 258 kts 93°
2026-05-06 16:29 39.46644 2.12627 7360 ft 258 kts 100°
2026-05-06 16:29 39.46264 2.14890 7015 ft 257 kts 102°
2026-05-06 16:29 39.45865 2.17127 6670 ft 256 kts 102°
2026-05-06 16:29 39.45456 2.19348 6324 ft 255 kts 102°
2026-05-06 16:30 39.45038 2.21591 5973 ft 255 kts 102°
2026-05-06 16:30 39.44903 2.22318 5860 ft 255 kts 102°
2026-05-06 16:30 39.44222 2.26035 5281 ft 254 kts 102°
2026-05-06 16:30 39.43876 2.28246 4930 ft 252 kts 94°
2026-05-06 16:31 39.43824 2.30504 4585 ft 251 kts 88°
2026-05-06 16:31 39.43864 2.32732 4262 ft 249 kts 87°
2026-05-06 16:31 39.43917 2.34942 4012 ft 244 kts 87°
2026-05-06 16:31 39.43972 2.37118 3761 ft 239 kts 87°
2026-05-06 16:32 39.44029 2.39234 3514 ft 235 kts 87°
2026-05-06 16:32 39.44090 2.41337 3264 ft 231 kts 87°
2026-05-06 16:32 39.44154 2.43392 3035 ft 226 kts 87°
2026-05-06 16:32 39.44215 2.45349 2986 ft 212 kts 87°
2026-05-06 16:33 39.44294 2.47205 2985 ft 195 kts 83°
2026-05-06 16:33 39.44538 2.48830 3035 ft 182 kts 73°
2026-05-06 16:33 39.44996 2.50361 2997 ft 181 kts 65°
2026-05-06 16:34 39.46236 2.53134 2996 ft 172 kts 58°
2026-05-06 16:34 39.46870 2.54446 2893 ft 168 kts 58°
2026-05-06 16:34 39.47462 2.55682 2702 ft 155 kts 59°
2026-05-06 16:34 39.48031 2.56886 2516 ft 158 kts 59°
2026-05-06 16:35 39.48599 2.58094 2306 ft 158 kts 59°
2026-05-06 16:35 39.49174 2.59317 2093 ft 157 kts 59°
2026-05-06 16:35 39.49738 2.60518 1885 ft 156 kts 59°
2026-05-06 16:35 39.50303 2.61720 1678 ft 155 kts 59°
2026-05-06 16:36 39.50862 2.62907 1469 ft 155 kts 59°
2026-05-06 16:36 39.51426 2.64105 1264 ft 155 kts 58°
2026-05-06 16:36 39.51987 2.65295 1055 ft 152 kts 59°
2026-05-06 16:36 39.52519 2.66432 851 ft 147 kts 59°
2026-05-06 16:37 39.53055 2.67570 658 ft 146 kts 59°
2026-05-06 16:37 39.53585 2.68691 468 ft 146 kts 57°
2026-05-06 16:37 39.54107 2.69816 280 ft 146 kts 57°
2026-05-06 16:37 39.54642 2.70918 104 ft 145 kts 57°
2026-05-06 16:38 39.55154 2.71993 16 ft 120 kts 59°
2026-05-06 16:38 39.55419 2.72563 5 ft 42 kts 59°
2026-05-06 16:38 39.55481 2.72733 10 ft 12 kts 76°
2026-05-06 16:38 39.55496 2.72845 12 ft 13 kts 84°
2026-05-06 16:39 39.55495 2.72963 13 ft 3 kts 90°
2026-05-06 16:40 39.55496 2.73030 14 ft 13 kts 89°
2026-05-06 16:41 39.55500 2.73150 15 ft 13 kts 81°
2026-05-06 16:41 39.55537 2.73257 17 ft 13 kts 59°
2026-05-06 16:41 39.55586 2.73358 18 ft 13 kts 58°
2026-05-06 16:41 39.55625 2.73451 18 ft 9 kts 79°
2026-05-06 16:42 39.55592 2.73521 19 ft 9 kts 146°
2026-05-06 16:42 39.55540 2.73564 22 ft 9 kts 148°
2026-05-06 16:42 39.55477 2.73613 25 ft 12 kts 149°
2026-05-06 16:42 39.55389 2.73682 33 ft 16 kts 148°
2026-05-06 16:43 39.55293 2.73759 41 ft 16 kts 148°
2026-05-06 16:43 39.55190 2.73840 44 ft 18 kts 148°
2026-05-06 16:43 39.55068 2.73937 44 ft 22 kts 148°
2026-05-06 16:43 39.54939 2.74037 40 ft 23 kts 149°
2026-05-06 16:44 39.54825 2.74120 33 ft 12 kts 174°
2026-05-06 16:44 39.54751 2.74046 35 ft 15 kts 238°
2026-05-06 16:44 39.54694 2.73926 37 ft 16 kts 238°
2026-05-06 16:44 39.54627 2.73786 36 ft 19 kts 239°
2026-05-06 16:45 39.54586 2.73684 35 ft 10 kts 269°
2026-05-06 16:45 39.54619 2.73583 35 ft 13 kts 290°
2026-05-06 16:45 39.54668 2.73521 35 ft 10 kts 328°
2026-05-06 16:45 39.54729 2.73472 33 ft 7 kts 328°
2026-05-06 16:46 39.54782 2.73420 34 ft 10 kts 303°
2026-05-06 16:46 39.54792 2.73362 35 ft 3 kts 267°
2026-05-06 16:46 39.54791 2.73339 35 ft 0 kts 268°